Marshfield, WI

1:41 AM CDT on October 23, 2017 (GMT -0500)
Marshfield Municipal

Weather History for KMFI - December, 2013

Change the Weather History Date:

Monday, December 2, 2013

  Actual Average Record
Temperature  
Mean Temperature 28 °F -  
Max Temperature 36 °F 31 °F 61 °F (1982)
Min Temperature 19 °F 15 °F -19 °F (1919)
Degree Days  
Heating Degree Days 38    
Moisture  
Dew Point 26 °F    
Average Humidity 86    
Maximum Humidity 93    
Minimum Humidity 75    
Precipitation  
Precipitation 0.02 in - - ()
Sea Level Pressure  
Sea Level Pressure 29.82 in    
Wind  
Wind Speed 6 mph (ESE)    
Max Wind Speed 18 mph    
Max Gust Speed 25 mph    
Visibility 3 miles    
Events Fog , Snow    
Averages and records for this station are not official NWS values.
T = Trace of Precipitation, MM = Missing Value Source: NWS Daily Summary

Daily Weather History Graph

Daily Weather History Graph

Search for Another Location

Airport or City:

Trip Planner

Search our weather history database for the weather conditions in past years. The results will help you decide how hot, cold, wet, or windy it might be!

Date:

Astronomy

Dec. 02, 2013 Rise Set
Actual Time 7:18 AM CST 4:21 PM CST
Civil Twilight 6:46 AM CST 4:54 PM CST
Nautical Twilight 6:09 AM CST 5:30 PM CST
Astronomical Twilight 5:34 AM CST 6:06 PM CST
Moon 6:42 AM CST (12/2) 4:25 PM CST (12/2)
Length of Visible Light 10h 08m
Length of Day
9h 02m
Waning Crescent, 0% of the Moon is Illuminated
Dec 2
Waning Crescent
Dec 2
New
Dec 9
First Quarter
Dec 17
Full
Dec 25
Last Quarter

Hourly Weather History & Observations

Time (CST) Temp. Windchill Dew Point Humidity Pressure Visibility Wind Dir Wind Speed Gust Speed Precip Events Conditions
12:46 AM 21.2 °F - 17.6 °F 86% 29.93 in 2.5 mi Calm Calm - N/A   Clear
12:54 AM 21.9 °F - 19.0 °F 89% 29.98 in 3.0 mi Calm Calm - N/A   Clear
1:26 AM 21.2 °F - 17.6 °F 86% 29.92 in 2.5 mi Calm Calm - N/A   Clear
1:54 AM 19.9 °F - 17.1 °F 89% 29.98 in 2.5 mi Calm Calm - N/A   Clear
2:24 AM 19.4 °F - 15.8 °F 86% 29.91 in 3.0 mi Calm Calm - N/A   Clear
2:54 AM 19.0 °F 13.9 °F 16.0 °F 88% 29.96 in 3.0 mi East 3.5 mph - N/A   Clear
3:54 AM 19.0 °F - 17.1 °F 92% 29.95 in 3.0 mi Calm Calm - N/A   Clear
4:54 AM 21.0 °F 16.2 °F 17.1 °F 85% 29.93 in 4.0 mi ENE 3.5 mph - N/A   Mostly Cloudy
5:54 AM 21.9 °F 17.2 °F 19.0 °F 89% 29.92 in 4.0 mi ENE 3.5 mph - N/A   Clear
6:54 AM 21.9 °F - 19.0 °F 89% 29.92 in 3.0 mi Calm Calm - N/A   Clear
7:24 AM 21.2 °F - 19.4 °F 93% 29.85 in 2.5 mi Calm Calm - N/A   Partly Cloudy
7:54 AM 24.1 °F - 19.9 °F 84% 29.92 in 2.5 mi Calm Calm - N/A   Overcast
8:54 AM 27.0 °F 23.0 °F 25.0 °F 92% 29.91 in 2.0 mi ESE 3.5 mph - N/A   Overcast
9:54 AM 30.0 °F 23.2 °F 26.1 °F 85% 29.91 in 2.0 mi ESE 6.9 mph - N/A   Overcast
10:54 AM 32.0 °F 24.2 °F 28.0 °F 85% 29.88 in 3.0 mi SE 9.2 mph - N/A   Overcast
11:13 AM 30.2 °F 21.9 °F 28.4 °F 93% 29.83 in 2.5 mi SE 9.2 mph - N/A   Overcast
11:28 AM 32.0 °F 24.8 °F 28.4 °F 87% 29.82 in 3.0 mi ESE 8.1 mph - N/A   Overcast
11:54 AM 32.0 °F 24.2 °F 28.9 °F 88% 29.86 in 3.0 mi ESE 9.2 mph - N/A   Overcast
12:39 PM 33.8 °F 25.8 °F 28.4 °F 81% 29.79 in 5.0 mi SE 10.4 mph - N/A   Haze
12:54 PM 34.0 °F 26.6 °F 28.9 °F 82% 29.83 in 5.0 mi SE 9.2 mph - N/A   Haze
1:47 PM 35.6 °F 27.5 °F 28.4 °F 75% 29.76 in 6.0 mi SE 11.5 mph - N/A   Haze
1:54 PM 36.0 °F 27.1 °F 28.9 °F 76% 29.80 in 7.0 mi ESE 13.8 mph - N/A   Overcast
2:54 PM 35.1 °F 26.9 °F 28.9 °F 78% 29.79 in 7.0 mi ESE 11.5 mph - N/A   Scattered Clouds
3:54 PM 34.0 °F 26.0 °F 28.0 °F 79% 29.79 in 7.0 mi ESE 10.4 mph - N/A   Overcast
4:54 PM 34.0 °F 26.0 °F 28.0 °F 79% 29.78 in 9.0 mi ESE 10.4 mph - N/A   Overcast
5:54 PM 34.0 °F 25.0 °F 28.0 °F 79% 29.78 in 9.0 mi ESE 12.7 mph - N/A   Overcast
6:37 PM 33.8 °F 23.9 °F 26.6 °F 75% 29.73 in 9.0 mi ESE 15.0 mph - N/A   Overcast
6:54 PM 34.0 °F 24.6 °F 27.0 °F 75% 29.78 in 9.0 mi ESE 13.8 mph - N/A   Overcast
7:02 PM 33.8 °F 23.9 °F 26.6 °F 75% 29.73 in 6.0 mi ESE 15.0 mph - 0.00 in Snow Light Snow
7:39 PM 33.8 °F 25.3 °F 28.4 °F 81% 29.73 in 2.5 mi ESE 11.5 mph - 0.00 in Snow Light Snow
7:54 PM 32.0 °F 22.5 °F 28.0 °F 85% 29.78 in 2.0 mi ESE 12.7 mph - 0.00 in Snow Light Snow
8:01 PM 32.0 °F 22.1 °F 28.4 °F 87% 29.73 in 1.8 mi ESE 13.8 mph - 0.00 in Snow Light Snow
8:13 PM 32.0 °F 21.6 °F 28.4 °F 87% 29.73 in 1.5 mi ESE 15.0 mph 20.7 mph 0.00 in Snow Light Snow
8:30 PM 32.0 °F 22.1 °F 28.4 °F 87% 29.73 in 1.0 mi ESE 13.8 mph 21.9 mph 0.00 in Snow Light Snow
8:39 PM 32.0 °F 22.5 °F 28.4 °F 87% 29.73 in 0.8 mi ESE 12.7 mph 21.9 mph 0.00 in Snow Light Snow
8:43 PM 32.0 °F 22.5 °F 28.4 °F 87% 29.73 in 1.0 mi ESE 12.7 mph 21.9 mph 0.00 in Snow Light Snow
8:54 PM 32.0 °F 22.1 °F 28.9 °F 88% 29.78 in 1.0 mi ESE 13.8 mph - 0.00 in Snow Light Snow
9:02 PM 32.0 °F 21.2 °F 28.4 °F 87% 29.72 in 0.8 mi ESE 16.1 mph 25.3 mph 0.00 in Snow Light Snow
9:31 PM 32.0 °F 21.2 °F 28.4 °F 87% 29.73 in 0.8 mi ESE 16.1 mph - 0.00 in Snow Light Snow
9:44 PM 32.0 °F 23.0 °F 30.2 °F 93% 29.73 in 1.0 mi ESE 11.5 mph 21.9 mph 0.00 in Snow Light Snow
9:54 PM 32.0 °F 22.1 °F 30.0 °F 92% 29.78 in 0.8 mi ESE 13.8 mph - 0.00 in Snow Light Snow
10:24 PM 32.0 °F 21.2 °F 30.2 °F 93% 29.72 in 0.5 mi ESE 16.1 mph - 0.00 in Fog , Snow Snow
10:39 PM 32.0 °F 21.6 °F 28.4 °F 87% 29.72 in 1.0 mi SE 15.0 mph - 0.00 in Snow Light Snow
10:54 PM 32.0 °F 21.6 °F 30.0 °F 92% 29.77 in 1.0 mi ESE 15.0 mph - 0.01 in Snow Light Snow
11:44 PM 32.0 °F 20.5 °F 28.4 °F 87% 29.71 in 1.5 mi ESE 18.4 mph - 0.01 in Snow Light Snow
11:54 PM 32.0 °F 21.6 °F 28.9 °F 88% 29.75 in 1.5 mi ESE 15.0 mph - 0.01 in Snow Light Snow